SPTN35 YSTW-YBOK

Flight info

Callsign SPTN35
Flight time 1h 15m
Altitude 5000
Route IVL URAR MTY
Aircraft H60/M-SDFGRY/LB1

Departure

Time 2026-04-17 05:14
Airport Tamworth Airport (YSTW)

Arrival

Time 2026-04-17 06:29
Airport Oakey Army Aviation Centre (YBOK)
Time Latitude Longitude Altitude Speed Heading
2026-04-17 05:06 -31.08326 150.84822 1344 ft 0 kts 283°
2026-04-17 05:13 -31.08166 150.84859 1478 ft 57 kts
2026-04-17 05:14 -31.07606 150.84997 1994 ft 96 kts
2026-04-17 05:14 -31.06866 150.85121 2477 ft 121 kts 359°
2026-04-17 05:14 -31.05941 150.85324 2874 ft 149 kts 10°
2026-04-17 05:14 -31.04857 150.85652 3096 ft 169 kts 10°
2026-04-17 05:15 -31.03709 150.85917 3435 ft 166 kts
2026-04-17 05:15 -31.02640 150.86329 3950 ft 162 kts 11°
2026-04-17 05:15 -31.01527 150.86685 4203 ft 169 kts
2026-04-17 05:15 -31.00371 150.87027 4421 ft 174 kts
2026-04-17 05:16 -30.99178 150.87373 4592 ft 177 kts
2026-04-17 05:16 -30.98020 150.87685 4931 ft 166 kts
2026-04-17 05:16 -30.96870 150.87992 4982 ft 176 kts
2026-04-17 05:16 -30.95688 150.88382 4908 ft 180 kts
2026-04-17 05:17 -30.94498 150.88806 4325 ft 183 kts
2026-04-17 05:17 -30.93308 150.89201 4384 ft 176 kts
2026-04-17 05:17 -30.92127 150.89595 4703 ft 178 kts
2026-04-17 05:17 -30.90931 150.89990 5024 ft 180 kts
2026-04-17 05:18 -30.89735 150.90365 5307 ft 177 kts
2026-04-17 05:18 -30.88530 150.90742 5428 ft 182 kts
2026-04-17 05:18 -30.87313 150.91119 5387 ft 180 kts
2026-04-17 05:18 -30.86100 150.91506 5286 ft 180 kts
2026-04-17 05:19 -30.84905 150.91887 5193 ft 181 kts
2026-04-17 05:19 -30.83694 150.92259 5124 ft 180 kts
2026-04-17 05:19 -30.82492 150.92658 5062 ft 178 kts
2026-04-17 05:19 -30.81290 150.93052 5009 ft 181 kts
2026-04-17 05:20 -30.80104 150.93448 4958 ft 180 kts
2026-04-17 05:20 -30.78896 150.93864 4912 ft 181 kts
2026-04-17 05:20 -30.77689 150.94269 4862 ft 182 kts
2026-04-17 05:20 -30.76480 150.94680 4794 ft 181 kts
2026-04-17 05:21 -30.75274 150.95062 4761 ft 178 kts
2026-04-17 05:21 -30.74092 150.95442 4743 ft 182 kts
2026-04-17 05:21 -30.72868 150.95832 4746 ft 182 kts
2026-04-17 05:21 -30.71663 150.96217 4769 ft 183 kts
2026-04-17 05:22 -30.70423 150.96562 4708 ft 184 kts
2026-04-17 05:22 -30.69195 150.96938 4631 ft 181 kts
2026-04-17 05:22 -30.67986 150.97297 4676 ft 176 kts
2026-04-17 05:22 -30.66778 150.97668 4750 ft 185 kts
2026-04-17 05:23 -30.65566 150.98012 4699 ft 179 kts
2026-04-17 05:23 -30.64379 150.98357 4701 ft 173 kts
2026-04-17 05:23 -30.63171 150.98667 4679 ft 181 kts
2026-04-17 05:23 -30.62013 150.98985 4690 ft 175 kts
2026-04-17 05:24 -30.60803 150.99328 4685 ft 178 kts
2026-04-17 05:24 -30.59620 150.99659 4678 ft 175 kts
2026-04-17 05:24 -30.58423 150.99996 4681 ft 179 kts
2026-04-17 05:24 -30.57221 151.00313 4672 ft 172 kts
2026-04-17 05:25 -30.56023 151.00638 4680 ft 180 kts
2026-04-17 05:25 -30.54820 151.00970 4679 ft 176 kts
2026-04-17 05:25 -30.53611 151.01294 4679 ft 177 kts
2026-04-17 05:25 -30.52375 151.01630 4629 ft 186 kts
2026-04-17 05:26 -30.51167 151.01952 4708 ft 178 kts
2026-04-17 05:26 -30.49948 151.02281 4681 ft 180 kts
2026-04-17 05:26 -30.48738 151.02609 4684 ft 176 kts
2026-04-17 05:26 -30.47532 151.02926 4676 ft 180 kts
2026-04-17 05:27 -30.46327 151.03260 4677 ft 177 kts
2026-04-17 05:27 -30.45133 151.03578 4680 ft 175 kts
2026-04-17 05:27 -30.43920 151.03879 4689 ft 176 kts
2026-04-17 05:27 -30.42767 151.04192 4670 ft 176 kts
2026-04-17 05:28 -30.41587 151.04480 4664 ft 166 kts
2026-04-17 05:28 -30.40417 151.04777 4668 ft 176 kts
2026-04-17 05:28 -30.39248 151.05075 4677 ft 169 kts
2026-04-17 05:28 -30.38092 151.05339 4816 ft 165 kts
2026-04-17 05:29 -30.36972 151.05601 5118 ft 169 kts
2026-04-17 05:29 -30.35774 151.05879 5144 ft 182 kts
2026-04-17 05:29 -30.34554 151.06154 5108 ft 177 kts
2026-04-17 05:29 -30.33316 151.06464 5068 ft 183 kts
2026-04-17 05:30 -30.32096 151.06766 5060 ft 180 kts
2026-04-17 05:30 -30.30867 151.07085 5033 ft 180 kts
2026-04-17 05:30 -30.29647 151.07400 5059 ft 178 kts
2026-04-17 05:30 -30.28439 151.07702 5130 ft 179 kts
2026-04-17 05:31 -30.27223 151.08019 5116 ft 178 kts
2026-04-17 05:31 -30.26016 151.08293 5078 ft 180 kts
2026-04-17 05:31 -30.24796 151.08560 5023 ft 176 kts
2026-04-17 05:31 -30.23590 151.08816 5021 ft 176 kts
2026-04-17 05:32 -30.22376 151.09064 5038 ft 178 kts
2026-04-17 05:32 -30.21164 151.09300 5050 ft 176 kts
2026-04-17 05:32 -30.19934 151.09472 5017 ft 175 kts 359°
2026-04-17 05:32 -30.18716 151.09562 4974 ft 177 kts 359°
2026-04-17 05:33 -30.17501 151.09668 4997 ft 175 kts 359°
2026-04-17 05:33 -30.16284 151.09752 5038 ft 175 kts 359°
2026-04-17 05:33 -30.15072 151.09872 5052 ft 177 kts 359°
2026-04-17 05:33 -30.13845 151.09976 5034 ft 176 kts 359°
2026-04-17 05:34 -30.12602 151.10073 5011 ft 178 kts 359°
2026-04-17 05:34 -30.11362 151.10215 4980 ft 180 kts
2026-04-17 05:34 -30.10138 151.10378 4970 ft 177 kts
2026-04-17 05:34 -30.08904 151.10562 4980 ft 179 kts
2026-04-17 05:35 -30.07681 151.10736 4998 ft 177 kts
2026-04-17 05:35 -30.06465 151.10913 4998 ft 177 kts
2026-04-17 05:35 -30.05259 151.11094 4996 ft 177 kts
2026-04-17 05:35 -30.04037 151.11261 5000 ft 178 kts
2026-04-17 05:36 -30.02807 151.11453 5006 ft 180 kts
2026-04-17 05:36 -30.01585 151.11740 5009 ft 177 kts
2026-04-17 05:36 -30.00370 151.12036 5006 ft 180 kts
2026-04-17 05:36 -29.99151 151.12300 5002 ft 178 kts
2026-04-17 05:37 -29.97928 151.12584 4987 ft 177 kts
2026-04-17 05:37 -29.96691 151.12871 4887 ft 181 kts
2026-04-17 05:37 -29.95461 151.13128 4892 ft 181 kts
2026-04-17 05:37 -29.94246 151.13353 4870 ft 175 kts
2026-04-17 05:38 -29.93027 151.13546 4848 ft 177 kts
2026-04-17 05:38 -29.91826 151.13745 4850 ft 174 kts
2026-04-17 05:38 -29.90624 151.14058 4841 ft 177 kts
2026-04-17 05:38 -29.89422 151.14356 4840 ft 177 kts
2026-04-17 05:39 -29.88219 151.14599 4842 ft 173 kts
2026-04-17 05:39 -29.87017 151.14788 4841 ft 171 kts
2026-04-17 05:39 -29.85824 151.14964 4839 ft 173 kts
2026-04-17 05:39 -29.84643 151.15115 4835 ft 171 kts 360°
2026-04-17 05:40 -29.83461 151.15375 4835 ft 174 kts
2026-04-17 05:40 -29.82298 151.15681 4844 ft 169 kts
2026-04-17 05:40 -29.81183 151.15991 4848 ft 160 kts
2026-04-17 05:40 -29.80150 151.16283 4842 ft 150 kts
2026-04-17 05:41 -29.79240 151.16546 4891 ft 115 kts
2026-04-17 05:41 -29.78502 151.16772 4923 ft 109 kts
2026-04-17 05:41 -29.77801 151.16975 4978 ft 98 kts
2026-04-17 05:41 -29.77136 151.17131 5044 ft 102 kts
2026-04-17 05:42 -29.76306 151.17380 5264 ft 149 kts
2026-04-17 05:42 -29.75148 151.17604 5114 ft 182 kts
2026-04-17 05:42 -29.73881 151.17816 5021 ft 180 kts
2026-04-17 05:42 -29.72612 151.18036 5002 ft 184 kts
2026-04-17 05:43 -29.71344 151.18234 5015 ft 184 kts
2026-04-17 05:43 -29.70081 151.18448 5031 ft 183 kts
2026-04-17 05:43 -29.68804 151.18675 5031 ft 186 kts
2026-04-17 05:43 -29.67530 151.18894 5032 ft 184 kts
2026-04-17 05:44 -29.66250 151.19126 5048 ft 189 kts
2026-04-17 05:44 -29.64983 151.19363 5020 ft 189 kts
2026-04-17 05:44 -29.63713 151.19582 4983 ft 184 kts
2026-04-17 05:44 -29.62452 151.19825 5008 ft 185 kts
2026-04-17 05:45 -29.61194 151.20052 5075 ft 183 kts
2026-04-17 05:45 -29.59924 151.20276 5066 ft 185 kts
2026-04-17 05:45 -29.58658 151.20513 4960 ft 184 kts
2026-04-17 05:45 -29.57393 151.20725 4932 ft 182 kts
2026-04-17 05:46 -29.56131 151.20940 4961 ft 185 kts
2026-04-17 05:46 -29.54873 151.21134 5006 ft 182 kts
2026-04-17 05:46 -29.53601 151.21339 5023 ft 184 kts
2026-04-17 05:46 -29.52344 151.21548 4996 ft 184 kts
2026-04-17 05:47 -29.51092 151.21756 4960 ft 186 kts
2026-04-17 05:47 -29.49805 151.21969 4933 ft 185 kts
2026-04-17 05:47 -29.48527 151.22177 4954 ft 185 kts
2026-04-17 05:47 -29.47256 151.22395 4981 ft 186 kts
2026-04-17 05:48 -29.45982 151.22620 5031 ft 185 kts
2026-04-17 05:48 -29.44715 151.22835 5047 ft 184 kts
2026-04-17 05:48 -29.43445 151.23072 5019 ft 185 kts
2026-04-17 05:48 -29.42170 151.23298 4996 ft 186 kts
2026-04-17 05:49 -29.40899 151.23517 4969 ft 185 kts
2026-04-17 05:49 -29.39627 151.23745 4954 ft 186 kts
2026-04-17 05:49 -29.38362 151.23959 4945 ft 187 kts
2026-04-17 05:49 -29.37096 151.24176 4923 ft 182 kts
2026-04-17 05:50 -29.35830 151.24382 4951 ft 184 kts
2026-04-17 05:50 -29.34550 151.24602 4980 ft 188 kts
2026-04-17 05:50 -29.33270 151.24830 5010 ft 184 kts
2026-04-17 05:50 -29.31985 151.25041 5023 ft 187 kts
2026-04-17 05:51 -29.30720 151.25260 5043 ft 189 kts
2026-04-17 05:51 -29.29443 151.25468 5084 ft 183 kts
2026-04-17 05:51 -29.28160 151.25680 5106 ft 187 kts
2026-04-17 05:51 -29.26882 151.25912 5056 ft 184 kts
2026-04-17 05:52 -29.25595 151.26134 4996 ft 186 kts
2026-04-17 05:52 -29.24317 151.26350 4972 ft 182 kts
2026-04-17 05:52 -29.23036 151.26571 4971 ft 182 kts
2026-04-17 05:52 -29.21783 151.26785 4968 ft 184 kts
2026-04-17 05:53 -29.20508 151.26996 4935 ft 187 kts
2026-04-17 05:53 -29.19236 151.27207 4930 ft 185 kts
2026-04-17 05:53 -29.17988 151.27422 4946 ft 183 kts
2026-04-17 05:53 -29.16711 151.27621 4945 ft 186 kts
2026-04-17 05:54 -29.15445 151.27832 4947 ft 182 kts
2026-04-17 05:54 -29.14176 151.28034 4972 ft 183 kts
2026-04-17 05:54 -29.12905 151.28232 4994 ft 185 kts
2026-04-17 05:54 -29.11623 151.28448 5025 ft 186 kts
2026-04-17 05:55 -29.10350 151.28637 5050 ft 187 kts
2026-04-17 05:55 -29.09066 151.28846 5074 ft 183 kts
2026-04-17 05:55 -29.07788 151.29053 5119 ft 185 kts
2026-04-17 05:55 -29.06514 151.29246 5092 ft 185 kts
2026-04-17 05:56 -29.05253 151.29454 5051 ft 186 kts
2026-04-17 05:56 -29.03981 151.29674 4999 ft 183 kts
2026-04-17 05:56 -29.02713 151.29899 4994 ft 183 kts
2026-04-17 05:56 -29.01450 151.30115 5031 ft 185 kts
2026-04-17 05:57 -29.00178 151.30335 5067 ft 185 kts
2026-04-17 05:57 -28.98904 151.30556 5031 ft 185 kts
2026-04-17 05:57 -28.97636 151.30776 5010 ft 184 kts
2026-04-17 05:57 -28.96371 151.30995 4992 ft 185 kts
2026-04-17 05:58 -28.95097 151.31231 4968 ft 187 kts
2026-04-17 05:58 -28.93843 151.31438 4949 ft 184 kts
2026-04-17 05:58 -28.92560 151.31640 4940 ft 188 kts
2026-04-17 05:59 -28.90007 151.32049 4967 ft 184 kts
2026-04-17 05:59 -28.88744 151.32262 5000 ft 182 kts
2026-04-17 05:59 -28.87488 151.32481 5019 ft 182 kts
2026-04-17 05:59 -28.86214 151.32694 5016 ft 185 kts
2026-04-17 06:00 -28.84952 151.32917 5020 ft 182 kts
2026-04-17 06:00 -28.83704 151.33130 5026 ft 184 kts
2026-04-17 06:00 -28.82438 151.33348 5037 ft 184 kts
2026-04-17 06:00 -28.81168 151.33562 5050 ft 185 kts
2026-04-17 06:01 -28.79897 151.33785 5060 ft 186 kts
2026-04-17 06:01 -28.78621 151.34009 5057 ft 184 kts
2026-04-17 06:01 -28.77351 151.34244 5057 ft 185 kts
2026-04-17 06:01 -28.76073 151.34477 5059 ft 186 kts
2026-04-17 06:02 -28.74789 151.34702 5069 ft 185 kts
2026-04-17 06:02 -28.73509 151.34924 5086 ft 189 kts
2026-04-17 06:02 -28.72235 151.35130 5110 ft 186 kts
2026-04-17 06:02 -28.70957 151.35327 5127 ft 189 kts
2026-04-17 06:03 -28.69666 151.35509 5121 ft 186 kts
2026-04-17 06:03 -28.68388 151.35691 5140 ft 184 kts
2026-04-17 06:03 -28.67117 151.35884 5166 ft 185 kts
2026-04-17 06:03 -28.66271 151.36011 5154 ft 187 kts
2026-04-17 06:04 -28.64595 151.36218 5068 ft 184 kts 358°
2026-04-17 06:04 -28.63314 151.36321 4991 ft 183 kts 358°
2026-04-17 06:04 -28.62043 151.36406 4931 ft 184 kts 358°
2026-04-17 06:04 -28.60773 151.36489 4898 ft 181 kts 358°
2026-04-17 06:05 -28.59518 151.36588 4891 ft 184 kts 358°
2026-04-17 06:05 -28.58249 151.36684 4918 ft 179 kts 358°
2026-04-17 06:05 -28.57422 151.36756 4960 ft 182 kts 358°
2026-04-17 06:05 -28.56149 151.36873 5002 ft 182 kts 358°
2026-04-17 06:06 -28.54867 151.36963 5046 ft 186 kts 358°
2026-04-17 06:06 -28.53578 151.37075 5090 ft 185 kts
2026-04-17 06:06 -28.52288 151.37377 5093 ft 191 kts
2026-04-17 06:06 -28.50574 151.37858 5021 ft 194 kts
2026-04-17 06:07 -28.49302 151.38222 4958 ft 189 kts
2026-04-17 06:07 -28.48435 151.38472 4932 ft 190 kts
2026-04-17 06:07 -28.47146 151.38838 4883 ft 194 kts
2026-04-17 06:07 -28.45868 151.39199 4832 ft 194 kts
2026-04-17 06:08 -28.44569 151.39538 4794 ft 189 kts
2026-04-17 06:08 -28.43283 151.39774 4798 ft 192 kts
2026-04-17 06:08 -28.41995 151.39932 4868 ft 186 kts
2026-04-17 06:08 -28.40293 151.40148 5007 ft 186 kts
2026-04-17 06:09 -28.39423 151.40258 5069 ft 185 kts
2026-04-17 06:09 -28.37732 151.40487 5196 ft 187 kts
2026-04-17 06:09 -28.36439 151.40637 5252 ft 186 kts
2026-04-17 06:09 -28.35570 151.40749 5274 ft 187 kts
2026-04-17 06:10 -28.33861 151.40969 5251 ft 186 kts
2026-04-17 06:10 -28.33008 151.41122 5223 ft 188 kts
2026-04-17 06:10 -28.31720 151.41354 5172 ft 188 kts
2026-04-17 06:10 -28.30439 151.41671 5108 ft 187 kts
2026-04-17 06:11 -28.29159 151.42003 5001 ft 190 kts
2026-04-17 06:11 -28.27875 151.42315 4931 ft 187 kts
2026-04-17 06:11 -28.26598 151.42616 5012 ft 187 kts
2026-04-17 06:11 -28.25318 151.42915 5108 ft 188 kts
2026-04-17 06:12 -28.23616 151.43334 5023 ft 190 kts
2026-04-17 06:12 -28.22741 151.43547 4960 ft 190 kts
2026-04-17 06:12 -28.21464 151.43874 4993 ft 188 kts
2026-04-17 06:12 -28.20199 151.44187 5008 ft 188 kts
2026-04-17 06:13 -28.18920 151.44513 5011 ft 189 kts
2026-04-17 06:13 -28.17636 151.44841 5023 ft 188 kts
2026-04-17 06:13 -28.16355 151.45169 5023 ft 190 kts
2026-04-17 06:13 -28.15062 151.45486 5009 ft 187 kts
2026-04-17 06:14 -28.13782 151.45781 4989 ft 190 kts
2026-04-17 06:14 -28.12492 151.46100 4964 ft 189 kts
2026-04-17 06:14 -28.11206 151.46398 4952 ft 188 kts
2026-04-17 06:14 -28.09926 151.46702 4944 ft 189 kts
2026-04-17 06:15 -28.08666 151.47011 4958 ft 186 kts
2026-04-17 06:15 -28.07394 151.47322 4976 ft 188 kts
2026-04-17 06:15 -28.06114 151.47630 5004 ft 187 kts
2026-04-17 06:15 -28.04826 151.47938 5018 ft 191 kts
2026-04-17 06:16 -28.03550 151.48228 5052 ft 186 kts
2026-04-17 06:16 -28.02266 151.48524 5066 ft 187 kts
2026-04-17 06:16 -28.00981 151.48812 5076 ft 189 kts
2026-04-17 06:16 -27.99718 151.49106 5079 ft 186 kts
2026-04-17 06:17 -27.98430 151.49403 5062 ft 190 kts
2026-04-17 06:17 -27.97146 151.49700 5043 ft 190 kts
2026-04-17 06:17 -27.95864 151.50006 5021 ft 187 kts
2026-04-17 06:17 -27.94593 151.50304 5007 ft 186 kts
2026-04-17 06:18 -27.93315 151.50612 4977 ft 189 kts
2026-04-17 06:18 -27.92048 151.50917 4953 ft 186 kts
2026-04-17 06:18 -27.90776 151.51220 4949 ft 188 kts
2026-04-17 06:18 -27.89500 151.51524 4948 ft 187 kts
2026-04-17 06:19 -27.88260 151.51824 4958 ft 185 kts
2026-04-17 06:19 -27.86984 151.52128 4963 ft 186 kts
2026-04-17 06:19 -27.85724 151.52455 4962 ft 189 kts
2026-04-17 06:19 -27.84463 151.52769 4967 ft 185 kts
2026-04-17 06:20 -27.83194 151.53092 4976 ft 189 kts
2026-04-17 06:20 -27.81914 151.53417 4998 ft 187 kts
2026-04-17 06:20 -27.80645 151.53744 5023 ft 189 kts
2026-04-17 06:20 -27.79370 151.54064 5051 ft 186 kts
2026-04-17 06:21 -27.78103 151.54382 5091 ft 186 kts
2026-04-17 06:21 -27.76859 151.54687 5125 ft 186 kts
2026-04-17 06:21 -27.75569 151.54852 5074 ft 184 kts
2026-04-17 06:21 -27.74302 151.55026 5020 ft 184 kts
2026-04-17 06:22 -27.73031 151.55193 4990 ft 184 kts
2026-04-17 06:22 -27.71765 151.55355 4950 ft 183 kts
2026-04-17 06:22 -27.70492 151.55528 4919 ft 180 kts
2026-04-17 06:22 -27.69233 151.55696 4883 ft 185 kts
2026-04-17 06:23 -27.67970 151.55866 4861 ft 183 kts
2026-04-17 06:23 -27.66705 151.56047 4879 ft 183 kts
2026-04-17 06:23 -27.65449 151.56221 4945 ft 184 kts
2026-04-17 06:23 -27.64186 151.56410 5020 ft 184 kts
2026-04-17 06:24 -27.62908 151.56588 5069 ft 184 kts
2026-04-17 06:24 -27.61640 151.56760 5134 ft 186 kts
2026-04-17 06:24 -27.60363 151.56928 5212 ft 183 kts
2026-04-17 06:24 -27.59079 151.57124 5258 ft 187 kts 15°
2026-04-17 06:25 -27.57897 151.57737 5225 ft 191 kts 45°
2026-04-17 06:25 -27.56884 151.58761 5099 ft 194 kts 44°
2026-04-17 06:25 -27.55927 151.59799 4955 ft 192 kts 42°
2026-04-17 06:25 -27.54950 151.60848 4888 ft 189 kts 41°
2026-04-17 06:26 -27.53992 151.61880 4945 ft 193 kts 41°
2026-04-17 06:26 -27.53019 151.62914 5016 ft 190 kts 40°
2026-04-17 06:26 -27.52044 151.63925 4888 ft 189 kts 37°
2026-04-17 06:26 -27.50994 151.64829 4830 ft 190 kts 32°
2026-04-17 06:27 -27.49879 151.65639 4395 ft 193 kts 28°
2026-04-17 06:27 -27.48730 151.66413 4158 ft 192 kts 29°
2026-04-17 06:27 -27.47620 151.67176 3904 ft 185 kts 28°
2026-04-17 06:27 -27.46479 151.67937 3365 ft 196 kts 28°
2026-04-17 06:28 -27.45338 151.68730 3513 ft 188 kts 31°
2026-04-17 06:28 -27.44211 151.69355 3056 ft 186 kts 18°
2026-04-17 06:28 -27.42993 151.69837 2587 ft 180 kts 10°
2026-04-17 06:28 -27.41981 151.70177 2298 ft 129 kts 10°
2026-04-17 06:29 -27.41174 151.70580 1934 ft 126 kts 42°
2026-04-17 06:29 -27.40844 151.71511 1747 ft 140 kts 105°
2026-04-17 06:29 -27.41054 151.72403 1476 ft 83 kts 109°
2026-04-17 06:29 -27.41127 151.72862 1393 ft 41 kts 103°
2026-04-17 06:30 -27.41163 151.73117 1385 ft 31 kts 114°
2026-04-17 06:30 -27.41201 151.73369 1371 ft 31 kts 124°
2026-04-17 06:30 -27.41234 151.73568 1354 ft 27 kts 114°
2026-04-17 06:30 -27.41243 151.73636 1342 ft 1 kts 130°
2026-04-17 06:31 -27.41247 151.73649 1339 ft 1 kts 97°
2026-04-17 06:31 -27.41254 151.73694 1333 ft 11 kts 99°
2026-04-17 06:31 -27.41280 151.73762 1332 ft 8 kts 183°
2026-04-17 06:31 -27.41322 151.73751 1332 ft 5 kts 257°
2026-04-17 06:32 -27.41320 151.73717 1332 ft 3 kts 281°
2026-04-17 06:32 -27.41319 151.73713 1332 ft 0 kts 280°
2026-04-17 06:34 -27.41327 151.73700 1333 ft 0 kts 280°
2026-04-17 06:34 -27.41319 151.73702 1331 ft 0 kts 281°